Year,Month,Day,Hour,Minute,Value (Times are PST for temperature in C)
2016,08,24,00,00,15.30
2016,08,24,00,01,15.30
2016,08,24,00,02,15.20
2016,08,24,00,03,15.20
2016,08,24,00,04,15.20
2016,08,24,00,05,15.20
2016,08,24,00,06,15.10
2016,08,24,00,07,15.10
2016,08,24,00,08,15.00
2016,08,24,00,09,14.90
2016,08,24,00,10,14.90
2016,08,24,00,11,14.80
2016,08,24,00,12,14.80
2016,08,24,00,13,14.80
2016,08,24,00,14,14.80
2016,08,24,00,15,14.80
2016,08,24,00,16,14.80
2016,08,24,00,17,14.80
2016,08,24,00,18,14.70
2016,08,24,00,19,14.70
2016,08,24,00,20,14.70
2016,08,24,00,21,14.70
2016,08,24,00,22,14.70
2016,08,24,00,23,14.70
2016,08,24,00,24,14.60
2016,08,24,00,25,14.70
2016,08,24,00,26,14.70
2016,08,24,00,27,14.70
2016,08,24,00,28,14.70
2016,08,24,00,29,14.70
2016,08,24,00,30,14.70
2016,08,24,00,31,14.70
2016,08,24,00,32,14.70
2016,08,24,00,33,14.70
2016,08,24,00,34,14.70
2016,08,24,00,35,14.60
2016,08,24,00,36,14.60
2016,08,24,00,37,14.60
2016,08,24,00,38,14.60
2016,08,24,00,39,14.60
2016,08,24,00,40,14.60
2016,08,24,00,41,14.60
2016,08,24,00,42,14.60
2016,08,24,00,43,14.60
2016,08,24,00,44,14.60
2016,08,24,00,45,14.70
2016,08,24,00,46,14.70
2016,08,24,00,47,14.70
2016,08,24,00,48,14.70
2016,08,24,00,49,14.70
2016,08,24,00,50,14.70
2016,08,24,00,51,14.70
2016,08,24,00,52,14.70
2016,08,24,00,53,14.70
2016,08,24,00,54,14.70
2016,08,24,00,55,14.70
2016,08,24,00,56,14.70
2016,08,24,00,57,14.70
2016,08,24,00,58,14.70
2016,08,24,00,59,14.70
2016,08,24,01,00,14.70
2016,08,24,01,01,14.70
2016,08,24,01,02,14.70
2016,08,24,01,03,14.70
2016,08,24,01,04,14.70
2016,08,24,01,05,14.70
2016,08,24,07,10,14.00
2016,08,24,07,11,14.00
2016,08,24,07,12,14.10
2016,08,24,07,13,14.10
2016,08,24,07,14,14.20
2016,08,24,07,15,14.20
2016,08,24,07,16,14.30
2016,08,24,07,17,14.30
2016,08,24,07,18,14.40
2016,08,24,07,19,14.40
2016,08,24,07,20,14.50
2016,08,24,07,21,14.60
2016,08,24,07,22,14.60
2016,08,24,07,23,14.70
2016,08,24,07,24,14.70
2016,08,24,07,25,14.80
2016,08,24,07,26,14.90
2016,08,24,07,27,15.00
2016,08,24,07,28,15.10
2016,08,24,07,29,15.20
2016,08,24,07,30,15.40
2016,08,24,07,31,15.50
2016,08,24,07,32,15.70
2016,08,24,07,33,15.80
2016,08,24,07,34,15.90
2016,08,24,07,35,16.00
2016,08,24,07,36,16.10
2016,08,24,07,37,16.10
2016,08,24,07,38,16.10
2016,08,24,07,39,16.20
2016,08,24,07,40,16.20
2016,08,24,07,41,16.20
2016,08,24,07,42,16.30
2016,08,24,07,43,16.30
2016,08,24,07,44,16.40
2016,08,24,07,45,16.50
2016,08,24,07,46,16.50
2016,08,24,07,47,16.60
2016,08,24,07,48,16.60
2016,08,24,07,49,16.60
2016,08,24,07,50,16.70
2016,08,24,07,51,16.70
2016,08,24,07,52,16.70
2016,08,24,07,53,16.70
2016,08,24,07,54,16.70
2016,08,24,07,55,16.70
2016,08,24,07,56,16.60
2016,08,24,07,57,16.60
2016,08,24,07,58,16.60
2016,08,24,07,59,16.60
2016,08,24,08,00,16.50
2016,08,24,08,01,16.50
2016,08,24,08,02,16.40
2016,08,24,08,03,16.40
2016,08,24,08,04,16.40
2016,08,24,08,05,16.30
2016,08,24,08,06,16.30
2016,08,24,08,07,16.30
2016,08,24,08,08,16.40
2016,08,24,08,09,16.40
2016,08,24,08,10,16.40
2016,08,24,08,11,16.40
2016,08,24,08,12,16.50
2016,08,24,08,13,16.50
2016,08,24,08,14,16.60
2016,08,24,08,15,16.60
2016,08,24,08,16,16.60
2016,08,24,08,17,16.70
2016,08,24,08,18,16.70
2016,08,24,08,19,16.70
2016,08,24,08,20,16.80
2016,08,24,08,21,16.80
2016,08,24,08,22,16.80
2016,08,24,08,23,16.80
2016,08,24,08,24,16.90
2016,08,24,08,25,16.90
2016,08,24,08,26,16.90
2016,08,24,08,27,16.80
2016,08,24,08,28,16.80
2016,08,24,08,29,16.80
2016,08,24,08,30,16.80
2016,08,24,08,31,16.80
2016,08,24,08,32,16.80
2016,08,24,08,33,16.90
2016,08,24,08,34,16.90
2016,08,24,08,35,16.90
2016,08,24,08,36,16.90
2016,08,24,08,37,16.90
2016,08,24,08,38,16.90
2016,08,24,08,39,16.80
2016,08,24,08,40,16.80
2016,08,24,08,41,16.80
2016,08,24,08,42,16.90
2016,08,24,08,43,16.90
2016,08,24,08,44,16.90
2016,08,24,08,45,17.00
2016,08,24,08,46,17.10
2016,08,24,08,47,17.20
2016,08,24,08,48,17.30
2016,08,24,08,49,17.40
2016,08,24,08,50,17.60
2016,08,24,08,51,17.90
2016,08,24,08,52,18.10
2016,08,24,08,53,18.30
2016,08,24,08,54,18.60
2016,08,24,08,55,18.80
2016,08,24,08,56,18.90
2016,08,24,08,57,19.10
2016,08,24,08,58,19.20
2016,08,24,08,59,19.30
2016,08,24,09,00,19.40
2016,08,24,09,01,19.50
2016,08,24,09,02,19.60
2016,08,24,09,03,19.70
2016,08,24,09,04,19.80
2016,08,24,09,05,19.90
2016,08,24,09,06,20.00
2016,08,24,09,07,20.10
2016,08,24,09,08,20.20
2016,08,24,09,09,20.40
2016,08,24,09,10,20.50
2016,08,24,09,11,20.70
2016,08,24,09,12,20.80
2016,08,24,09,13,20.80
2016,08,24,09,14,20.90
2016,08,24,09,15,20.90
2016,08,24,09,16,20.90
2016,08,24,09,17,21.00
2016,08,24,09,18,21.00
2016,08,24,09,19,21.10
2016,08,24,09,20,21.20
2016,08,24,09,21,21.20
2016,08,24,09,22,21.20
2016,08,24,09,23,21.20
2016,08,24,09,24,21.20
2016,08,24,09,25,21.20
2016,08,24,09,26,21.30
2016,08,24,09,27,21.30
2016,08,24,09,28,21.30
2016,08,24,09,29,21.30
2016,08,24,09,30,21.30
2016,08,24,09,31,21.20
2016,08,24,09,32,21.20
2016,08,24,09,33,21.20
2016,08,24,09,34,21.10
2016,08,24,09,35,21.10
2016,08,24,09,36,21.00
2016,08,24,09,37,21.00
2016,08,24,09,38,21.00
2016,08,24,09,39,21.10
2016,08,24,09,40,21.10
2016,08,24,09,41,21.20
2016,08,24,09,42,21.20
2016,08,24,09,43,21.30
2016,08,24,09,44,21.30
2016,08,24,09,45,21.40
2016,08,24,09,46,21.40
2016,08,24,09,47,21.50
2016,08,24,09,48,21.60
2016,08,24,09,49,21.60
2016,08,24,09,50,21.70
2016,08,24,09,51,21.70
2016,08,24,09,52,21.80
2016,08,24,09,53,21.90
2016,08,24,09,54,21.90
2016,08,24,09,55,21.90
2016,08,24,09,56,21.90
2016,08,24,09,57,21.90
2016,08,24,09,58,21.90
2016,08,24,09,59,22.00
2016,08,24,10,00,22.00
2016,08,24,10,01,21.90
2016,08,24,10,02,21.90
2016,08,24,10,03,21.90
2016,08,24,10,04,21.90
2016,08,24,10,05,21.90
2016,08,24,10,06,22.00
2016,08,24,10,07,22.00
2016,08,24,10,08,22.10
2016,08,24,10,09,22.10
2016,08,24,10,10,22.10
2016,08,24,10,11,22.10
2016,08,24,10,12,22.20
2016,08,24,10,13,22.30
2016,08,24,10,14,22.40
2016,08,24,10,15,22.60
2016,08,24,10,16,22.70
2016,08,24,10,17,22.80
2016,08,24,10,18,22.90
2016,08,24,10,19,22.90
2016,08,24,10,20,23.00
2016,08,24,10,21,23.00
2016,08,24,10,22,23.10
2016,08,24,10,23,23.20
2016,08,24,10,24,23.30
2016,08,24,10,25,23.40
2016,08,24,10,26,23.50
2016,08,24,10,27,23.60
2016,08,24,10,28,23.50
2016,08,24,10,29,23.50
2016,08,24,10,30,23.40
2016,08,24,10,31,23.40
2016,08,24,10,32,23.40
2016,08,24,10,33,23.40
2016,08,24,10,34,23.40
2016,08,24,10,35,23.50
2016,08,24,10,36,23.50
2016,08,24,10,37,23.50
2016,08,24,10,38,23.60
2016,08,24,10,39,23.60
2016,08,24,10,40,23.70
2016,08,24,10,41,23.80
2016,08,24,10,42,23.80
2016,08,24,10,43,23.90
2016,08,24,10,44,24.00
2016,08,24,10,45,24.10
2016,08,24,10,46,24.10
2016,08,24,10,47,24.20
2016,08,24,10,48,24.20
2016,08,24,10,49,24.20
2016,08,24,10,50,24.30
2016,08,24,10,51,24.30
2016,08,24,10,52,24.30
2016,08,24,10,53,24.30
2016,08,24,10,54,24.40
2016,08,24,10,55,24.40
2016,08,24,10,56,24.50
2016,08,24,10,57,24.60
2016,08,24,10,58,24.70
2016,08,24,10,59,24.80
2016,08,24,11,00,24.80
2016,08,24,11,01,24.80
2016,08,24,11,02,24.80
2016,08,24,11,03,24.80
2016,08,24,11,04,24.90
2016,08,24,11,05,25.00
2016,08,24,11,06,25.10
2016,08,24,11,07,25.20
2016,08,24,11,08,25.30
2016,08,24,11,09,25.30
2016,08,24,11,10,25.30
2016,08,24,11,11,25.40
2016,08,24,11,12,25.40
2016,08,24,11,13,25.40
2016,08,24,11,14,25.40
2016,08,24,11,15,25.40
2016,08,24,11,16,25.40
2016,08,24,11,17,25.50
2016,08,24,11,18,25.50
2016,08,24,11,19,25.60
2016,08,24,11,20,25.70
2016,08,24,11,21,25.70
2016,08,24,11,22,25.70
2016,08,24,11,23,25.60
2016,08,24,11,24,25.60
2016,08,24,11,25,25.60
2016,08,24,11,26,25.60
2016,08,24,11,27,25.60
2016,08,24,11,28,25.70
2016,08,24,11,29,25.70
2016,08,24,11,30,25.70
2016,08,24,11,31,25.70
2016,08,24,11,32,25.70
2016,08,24,11,33,25.70
2016,08,24,11,34,25.70
2016,08,24,11,35,25.70
2016,08,24,11,36,25.70
2016,08,24,11,37,25.60
2016,08,24,11,38,25.60
2016,08,24,11,39,25.60
2016,08,24,11,40,25.60
2016,08,24,11,41,25.70
2016,08,24,11,42,25.80
2016,08,24,11,43,25.80
2016,08,24,11,44,25.90
2016,08,24,11,45,25.80
2016,08,24,11,46,25.90
2016,08,24,11,47,25.80
2016,08,24,11,48,25.80
2016,08,24,11,49,25.80
2016,08,24,11,50,25.80
2016,08,24,11,51,25.80
2016,08,24,11,52,25.70
2016,08,24,11,53,25.60
2016,08,24,11,54,25.50
2016,08,24,11,55,25.50
2016,08,24,11,56,25.50
2016,08,24,11,57,25.40
2016,08,24,11,58,25.40
2016,08,24,11,59,25.40
2016,08,24,12,00,25.40
2016,08,24,12,01,25.60
2016,08,24,12,02,25.70
2016,08,24,12,03,25.90
2016,08,24,12,04,26.00
2016,08,24,12,05,26.20
2016,08,24,12,06,26.30
2016,08,24,12,07,26.40
2016,08,24,12,08,26.50
2016,08,24,12,09,26.50
2016,08,24,12,10,26.60
2016,08,24,12,11,26.60
2016,08,24,12,12,26.60
2016,08,24,12,13,26.60
2016,08,24,12,14,26.60
2016,08,24,12,15,26.50
2016,08,24,12,16,26.30
2016,08,24,12,17,26.20
2016,08,24,12,18,25.90
2016,08,24,12,19,25.70
2016,08,24,12,20,25.60
2016,08,24,12,21,25.40
2016,08,24,12,22,25.30
2016,08,24,12,23,25.30
2016,08,24,12,24,25.40
2016,08,24,12,25,25.60
2016,08,24,12,26,25.70
2016,08,24,12,27,25.70
2016,08,24,12,28,25.60
2016,08,24,12,29,25.50
2016,08,24,12,30,25.40
2016,08,24,12,31,25.30
2016,08,24,12,32,25.20
2016,08,24,12,33,25.20
2016,08,24,12,34,25.20
2016,08,24,12,35,25.30
2016,08,24,12,36,25.30
2016,08,24,12,37,25.30
2016,08,24,12,38,25.30
2016,08,24,12,39,25.30
2016,08,24,12,40,25.40
2016,08,24,12,41,25.40
2016,08,24,12,42,25.50
2016,08,24,12,43,25.60
2016,08,24,12,44,25.70
2016,08,24,12,45,25.70
2016,08,24,12,46,25.70
2016,08,24,12,47,25.70
2016,08,24,12,48,25.70
2016,08,24,12,49,25.80
2016,08,24,12,50,26.00
2016,08,24,12,51,26.10
2016,08,24,12,52,26.10
2016,08,24,12,53,26.10
2016,08,24,12,54,26.00
2016,08,24,12,55,25.90
2016,08,24,12,56,25.90
2016,08,24,12,57,26.00
2016,08,24,12,58,26.00
2016,08,24,12,59,26.00
2016,08,24,13,00,26.00
2016,08,24,13,01,26.00
2016,08,24,13,02,25.90
2016,08,24,13,03,25.90
2016,08,24,13,04,25.90
2016,08,24,13,05,25.90
2016,08,24,13,06,25.80
2016,08,24,13,07,25.90
2016,08,24,13,08,25.90
2016,08,24,13,09,26.00
2016,08,24,13,10,26.00
2016,08,24,13,11,26.10
2016,08,24,13,12,26.20
2016,08,24,13,13,26.20
2016,08,24,13,14,26.20
2016,08,24,13,15,26.10
2016,08,24,13,16,26.10
2016,08,24,13,17,26.10
2016,08,24,13,18,26.20
2016,08,24,13,19,26.30
2016,08,24,13,20,26.40
2016,08,24,13,21,26.50
2016,08,24,13,22,26.60
2016,08,24,13,23,26.70
2016,08,24,13,24,26.90
2016,08,24,13,25,27.00
2016,08,24,13,26,27.10
2016,08,24,13,27,27.30
2016,08,24,13,28,27.40
2016,08,24,13,29,27.60
2016,08,24,13,30,27.70
2016,08,24,13,31,27.70
2016,08,24,13,32,27.60
2016,08,24,13,33,27.50
2016,08,24,13,34,27.40
2016,08,24,13,35,27.40
2016,08,24,13,36,27.30
2016,08,24,13,37,27.20
2016,08,24,13,38,27.10
2016,08,24,13,39,27.10
2016,08,24,13,40,27.00
2016,08,24,13,41,26.90
2016,08,24,13,42,26.80
2016,08,24,13,43,26.90
2016,08,24,13,44,26.90
2016,08,24,13,45,26.80
2016,08,24,13,46,26.80
2016,08,24,13,47,26.70
2016,08,24,13,48,26.60
2016,08,24,13,49,26.70
2016,08,24,13,50,26.80
2016,08,24,13,51,26.80
2016,08,24,13,52,26.70
2016,08,24,13,53,26.60
2016,08,24,13,54,26.50
2016,08,24,13,55,26.50
2016,08,24,13,56,26.50
2016,08,24,13,57,26.50
2016,08,24,13,58,26.40
2016,08,24,13,59,26.40
2016,08,24,14,00,26.30
2016,08,24,14,01,26.20
2016,08,24,14,02,26.20
2016,08,24,14,03,26.20
2016,08,24,14,04,26.30
2016,08,24,14,05,26.30
2016,08,24,14,06,26.40
2016,08,24,14,07,26.50
2016,08,24,14,08,26.60
2016,08,24,14,09,26.60
2016,08,24,14,10,26.70
2016,08,24,14,11,26.70
2016,08,24,14,12,26.80
2016,08,24,14,13,26.90
2016,08,24,14,14,26.90
2016,08,24,14,15,27.00
2016,08,24,14,16,27.00
2016,08,24,14,17,27.10
2016,08,24,14,18,27.30
2016,08,24,14,19,27.30
2016,08,24,14,20,27.40
2016,08,24,14,21,27.40
2016,08,24,14,22,27.50
2016,08,24,14,23,27.60
2016,08,24,14,24,27.60
2016,08,24,14,25,27.60
2016,08,24,14,26,27.50
2016,08,24,14,27,27.40
2016,08,24,14,28,27.30
2016,08,24,14,29,27.30
2016,08,24,14,30,27.30
2016,08,24,14,31,27.20
2016,08,24,14,32,27.10
2016,08,24,14,33,27.10
2016,08,24,14,34,27.10
2016,08,24,14,35,27.10
2016,08,24,14,36,27.00
2016,08,24,14,37,26.90
2016,08,24,14,38,26.90
2016,08,24,14,39,27.00
2016,08,24,14,40,27.00
2016,08,24,14,41,27.10
2016,08,24,14,42,27.30
2016,08,24,14,43,27.30
2016,08,24,14,44,27.20
2016,08,24,14,45,27.10
2016,08,24,14,46,27.10
2016,08,24,14,47,27.10
2016,08,24,14,48,27.20
2016,08,24,14,49,27.30
2016,08,24,14,50,27.30
2016,08,24,14,51,27.40
2016,08,24,14,52,27.50
2016,08,24,14,53,27.60
2016,08,24,14,54,27.60
2016,08,24,14,55,27.70
2016,08,24,14,56,27.60
2016,08,24,14,57,27.60
2016,08,24,14,58,27.50
2016,08,24,14,59,27.40
2016,08,24,15,00,27.40
2016,08,24,15,01,27.50
2016,08,24,15,02,27.40
2016,08,24,15,03,27.40
2016,08,24,15,04,27.30
2016,08,24,15,05,27.40
2016,08,24,15,06,27.50
2016,08,24,15,07,27.60
2016,08,24,15,08,27.60
2016,08,24,15,09,27.60
2016,08,24,15,10,27.60
2016,08,24,15,11,27.70
2016,08,24,15,12,27.70
2016,08,24,15,13,27.80
2016,08,24,15,14,28.00
2016,08,24,15,15,28.00
2016,08,24,15,16,28.10
2016,08,24,15,17,28.10
2016,08,24,15,18,28.20
2016,08,24,15,19,28.20
2016,08,24,15,20,28.30
2016,08,24,15,21,28.20
2016,08,24,15,22,28.20
2016,08,24,15,23,28.20
2016,08,24,15,24,28.20
2016,08,24,15,25,28.30
2016,08,24,15,26,28.30
2016,08,24,15,27,28.30
2016,08,24,15,28,28.20
2016,08,24,15,29,28.10
2016,08,24,15,30,28.00
2016,08,24,15,31,28.00
2016,08,24,15,32,27.90
2016,08,24,15,33,27.90
2016,08,24,15,34,28.00
2016,08,24,15,35,28.00
2016,08,24,15,36,28.00
2016,08,24,15,37,28.10
2016,08,24,15,38,28.10
2016,08,24,15,39,28.10
2016,08,24,15,40,28.10
2016,08,24,15,41,28.10
2016,08,24,15,42,28.10
2016,08,24,15,43,28.10
2016,08,24,15,44,28.10
2016,08,24,15,45,28.20
2016,08,24,15,46,28.30
2016,08,24,15,47,28.30
2016,08,24,15,48,28.40
2016,08,24,15,49,28.50
2016,08,24,15,50,28.60
2016,08,24,15,51,28.70
2016,08,24,15,52,28.80
2016,08,24,15,53,28.80
2016,08,24,15,54,28.80
2016,08,24,15,55,28.80
2016,08,24,15,56,28.70
2016,08,24,15,57,28.70
2016,08,24,15,58,28.70
2016,08,24,15,59,28.80
2016,08,24,16,00,28.80
2016,08,24,16,01,28.70
2016,08,24,16,02,28.70
2016,08,24,16,03,28.70
2016,08,24,16,04,28.80
2016,08,24,16,05,28.80
2016,08,24,16,06,28.80
2016,08,24,16,07,28.80
2016,08,24,16,08,28.70
2016,08,24,16,09,28.70
2016,08,24,16,10,28.70
2016,08,24,16,11,28.70
2016,08,24,16,12,28.70
2016,08,24,16,13,28.70
2016,08,24,16,14,28.70
2016,08,24,16,15,28.70
2016,08,24,16,16,28.80
2016,08,24,16,17,28.80
2016,08,24,16,18,28.80
2016,08,24,16,19,28.80
2016,08,24,16,20,28.80
2016,08,24,16,21,28.80
2016,08,24,16,22,28.80
2016,08,24,16,23,28.80
2016,08,24,16,24,28.70
2016,08,24,16,25,28.70
2016,08,24,16,26,28.70
2016,08,24,16,27,28.80
2016,08,24,16,28,28.80
2016,08,24,16,29,28.80
2016,08,24,16,30,28.80
2016,08,24,16,31,28.80
2016,08,24,16,32,28.90
2016,08,24,16,33,29.00
2016,08,24,16,34,29.10
2016,08,24,16,35,29.30
2016,08,24,16,36,29.40
2016,08,24,16,37,29.50
2016,08,24,16,38,29.60
2016,08,24,16,39,29.70
2016,08,24,16,40,29.80
2016,08,24,16,41,30.00
2016,08,24,16,42,30.10
2016,08,24,16,43,30.10
2016,08,24,16,44,30.10
2016,08,24,16,45,30.10
2016,08,24,16,46,30.00
2016,08,24,16,47,29.90
2016,08,24,16,48,29.80
2016,08,24,16,49,29.80
2016,08,24,16,50,29.80
2016,08,24,16,51,29.80
2016,08,24,16,52,29.90
2016,08,24,16,53,29.90
2016,08,24,16,54,30.00
2016,08,24,16,55,30.00
2016,08,24,16,56,30.00
2016,08,24,16,57,30.00
2016,08,24,16,58,30.10
2016,08,24,16,59,30.10
2016,08,24,17,00,30.10
2016,08,24,17,01,30.20
2016,08,24,17,02,30.20
2016,08,24,17,03,30.30
2016,08,24,17,04,30.30
2016,08,24,17,05,30.20
2016,08,24,17,06,30.20
2016,08,24,17,07,30.20
2016,08,24,17,08,30.20
2016,08,24,17,09,30.10
2016,08,24,17,10,30.10
2016,08,24,17,11,30.10
2016,08,24,17,12,30.10
2016,08,24,17,13,30.10
2016,08,24,17,14,30.10
2016,08,24,17,15,30.10
2016,08,24,17,16,30.10
2016,08,24,17,17,30.10
2016,08,24,17,18,30.20
2016,08,24,17,19,30.20
2016,08,24,17,20,30.20
2016,08,24,17,21,30.30
2016,08,24,17,22,30.30
2016,08,24,17,23,30.40
2016,08,24,17,24,30.50
2016,08,24,17,25,30.60
2016,08,24,17,26,30.60
2016,08,24,17,27,30.70
2016,08,24,17,28,30.70
2016,08,24,17,29,30.70
2016,08,24,17,30,30.70
2016,08,24,17,31,30.70
2016,08,24,17,32,30.70
2016,08,24,17,33,30.70
2016,08,24,17,34,30.70
2016,08,24,17,35,30.70
2016,08,24,17,36,30.80
2016,08,24,17,37,30.80
2016,08,24,17,38,30.80
2016,08,24,17,39,30.80
2016,08,24,17,40,30.80
2016,08,24,17,41,30.80
2016,08,24,17,42,30.80
2016,08,24,17,43,30.80
2016,08,24,17,44,30.80
2016,08,24,17,45,30.80
2016,08,24,17,46,30.80
2016,08,24,17,47,30.80
2016,08,24,17,48,30.90
2016,08,24,17,49,30.90
2016,08,24,17,50,30.80
2016,08,24,17,51,30.80
2016,08,24,17,52,30.80
2016,08,24,17,53,30.80
2016,08,24,17,54,30.80
2016,08,24,17,55,30.80
2016,08,24,17,56,30.70
2016,08,24,17,57,30.70
2016,08,24,17,58,30.60
2016,08,24,17,59,30.50
2016,08,24,18,00,30.50
2016,08,24,18,01,30.40
2016,08,24,18,02,30.40
2016,08,24,18,03,30.50
2016,08,24,18,04,30.50
2016,08,24,18,05,30.50
2016,08,24,18,06,30.50
2016,08,24,18,07,30.50
2016,08,24,18,08,30.40
2016,08,24,18,09,30.40
2016,08,24,18,10,30.40
2016,08,24,18,11,30.40
2016,08,24,18,12,30.40
2016,08,24,18,13,30.40
2016,08,24,18,14,30.40
2016,08,24,18,15,30.50
2016,08,24,18,16,30.50
2016,08,24,18,17,30.60
2016,08,24,18,18,30.60
2016,08,24,18,19,30.60
2016,08,24,18,20,30.50
2016,08,24,18,21,30.40
2016,08,24,18,22,30.30
2016,08,24,18,23,30.30
2016,08,24,18,24,30.20
2016,08,24,18,25,30.10
2016,08,24,18,26,30.10
2016,08,24,18,27,30.00
2016,08,24,18,28,29.90
2016,08,24,18,29,29.80
2016,08,24,18,30,29.80
2016,08,24,18,31,29.90
2016,08,24,18,32,29.90
2016,08,24,18,33,29.90
2016,08,24,18,34,30.00
2016,08,24,18,35,30.00
2016,08,24,18,36,30.10
2016,08,24,18,37,30.10
2016,08,24,18,38,30.10
2016,08,24,18,39,30.20
2016,08,24,18,40,30.20
2016,08,24,18,41,30.20
2016,08,24,18,42,30.20
2016,08,24,18,43,30.10
2016,08,24,18,44,30.00
2016,08,24,18,45,29.90
2016,08,24,18,46,29.90
2016,08,24,18,47,29.90
2016,08,24,18,48,29.90
2016,08,24,18,49,29.90
2016,08,24,18,50,29.90
2016,08,24,18,51,29.90
2016,08,24,18,52,29.90
2016,08,24,18,53,29.80
2016,08,24,18,54,29.70
2016,08,24,18,55,29.60
2016,08,24,18,56,29.60
2016,08,24,18,57,29.50
2016,08,24,18,58,29.50
2016,08,24,18,59,29.40
2016,08,24,19,00,29.30
2016,08,24,19,01,29.10
2016,08,24,19,02,29.00
2016,08,24,19,03,28.90
2016,08,24,19,04,28.90
2016,08,24,19,05,28.80
2016,08,24,19,06,28.70
2016,08,24,19,07,28.70
2016,08,24,19,08,28.60
2016,08,24,19,09,28.50
2016,08,24,19,10,28.40
2016,08,24,19,11,28.30
2016,08,24,19,12,28.20
2016,08,24,19,13,28.10
2016,08,24,19,14,28.10
2016,08,24,19,15,28.00
2016,08,24,19,16,27.90
2016,08,24,19,17,27.90
2016,08,24,19,18,27.80
2016,08,24,19,19,27.80
2016,08,24,19,20,27.70
2016,08,24,19,21,27.70
2016,08,24,19,22,27.60
2016,08,24,19,23,27.60
2016,08,24,19,24,27.50
2016,08,24,19,25,27.40
2016,08,24,19,26,27.40
2016,08,24,19,27,27.30
2016,08,24,19,28,27.20
2016,08,24,19,29,27.20
2016,08,24,19,30,27.10
2016,08,24,19,31,27.00
2016,08,24,19,32,26.90
2016,08,24,19,33,26.90
2016,08,24,19,34,26.80
2016,08,24,19,35,26.70
2016,08,24,19,36,26.70
2016,08,24,19,37,26.60
2016,08,24,19,38,26.60
2016,08,24,19,39,26.60
2016,08,24,19,40,26.50
2016,08,24,19,41,26.40
2016,08,24,19,42,26.40
2016,08,24,19,43,26.30
2016,08,24,19,44,26.30
2016,08,24,19,45,26.20
2016,08,24,19,46,26.20
2016,08,24,19,47,26.20
2016,08,24,19,48,26.10
2016,08,24,19,49,26.10
2016,08,24,19,50,26.10
2016,08,24,19,51,26.10
2016,08,24,19,52,26.00
2016,08,24,19,53,25.90
2016,08,24,19,54,25.90
2016,08,24,19,55,25.80
2016,08,24,19,56,25.80
2016,08,24,19,57,25.70
2016,08,24,19,58,25.60
2016,08,24,19,59,25.60
2016,08,24,20,00,25.50
2016,08,24,20,01,25.40
2016,08,24,20,02,25.40
2016,08,24,20,03,25.30
2016,08,24,20,04,25.30
2016,08,24,20,05,25.20
2016,08,24,20,06,25.20
2016,08,24,20,07,25.10
2016,08,24,20,08,25.00
2016,08,24,20,09,25.00
2016,08,24,20,10,24.90
2016,08,24,20,11,24.80
2016,08,24,20,12,24.70
2016,08,24,20,13,24.70
2016,08,24,20,14,24.60
2016,08,24,20,15,24.60
2016,08,24,20,16,24.50
2016,08,24,20,17,24.40
2016,08,24,20,18,24.30
2016,08,24,20,19,24.30
2016,08,24,20,20,24.20
2016,08,24,20,21,24.10
2016,08,24,20,22,24.00
2016,08,24,20,23,23.90
2016,08,24,20,24,23.90
2016,08,24,20,25,23.80
2016,08,24,20,26,23.80
2016,08,24,20,27,23.70
2016,08,24,20,28,23.70
2016,08,24,20,29,23.60
2016,08,24,20,30,23.60
2016,08,24,20,31,23.60
2016,08,24,20,32,23.70
2016,08,24,20,33,23.70
2016,08,24,20,34,23.70
2016,08,24,20,35,23.70
2016,08,24,20,36,23.80
2016,08,24,20,37,23.80
2016,08,24,20,38,23.80
2016,08,24,20,39,23.80
2016,08,24,20,40,23.80
2016,08,24,20,41,23.80
2016,08,24,20,42,23.80
2016,08,24,20,43,23.80
2016,08,24,20,44,23.80
2016,08,24,20,45,23.80
2016,08,24,20,46,23.80
2016,08,24,20,47,23.80
2016,08,24,20,48,23.80
2016,08,24,20,49,23.80
2016,08,24,20,50,23.80
2016,08,24,20,51,23.80
2016,08,24,20,52,23.70
2016,08,24,20,53,23.70
2016,08,24,20,54,23.60
2016,08,24,20,55,23.60
2016,08,24,20,56,23.50
2016,08,24,20,57,23.40
2016,08,24,20,58,23.30
2016,08,24,20,59,23.20
2016,08,24,21,00,23.10
2016,08,24,21,01,23.10
2016,08,24,21,02,23.00
2016,08,24,21,03,22.90
2016,08,24,21,04,22.90
2016,08,24,21,05,22.80
2016,08,24,21,06,22.80
2016,08,24,21,07,22.80
2016,08,24,21,08,22.80
2016,08,24,21,09,22.80
2016,08,24,21,10,22.80
2016,08,24,21,11,22.90
2016,08,24,21,12,22.90
2016,08,24,21,13,22.90
2016,08,24,21,14,22.90
2016,08,24,21,15,22.90
2016,08,24,21,16,22.90
2016,08,24,21,17,22.80
2016,08,24,21,18,22.70
2016,08,24,21,19,22.60
2016,08,24,21,20,22.50
2016,08,24,21,21,22.40
2016,08,24,21,22,22.20
2016,08,24,21,23,22.10
2016,08,24,21,24,22.00
2016,08,24,21,25,21.80
2016,08,24,21,26,21.70
2016,08,24,21,27,21.60
2016,08,24,21,28,21.50
2016,08,24,21,29,21.40
2016,08,24,21,30,21.20
2016,08,24,21,31,21.20
2016,08,24,21,32,21.10
2016,08,24,21,33,21.00
2016,08,24,21,34,21.00
2016,08,24,21,35,20.90
2016,08,24,21,36,20.80
2016,08,24,21,37,20.80
2016,08,24,21,38,20.80
2016,08,24,21,39,20.80
2016,08,24,21,40,20.70
2016,08,24,21,41,20.70
2016,08,24,21,42,20.70
2016,08,24,21,43,20.60
2016,08,24,21,44,20.60
2016,08,24,21,45,20.50
2016,08,24,21,46,20.50
2016,08,24,21,47,20.40
2016,08,24,21,48,20.40
2016,08,24,21,49,20.40
2016,08,24,21,50,20.30
2016,08,24,21,51,20.30
2016,08,24,21,52,20.30
2016,08,24,21,53,20.30
2016,08,24,21,54,20.30
2016,08,24,21,55,20.30
2016,08,24,21,56,20.30
2016,08,24,21,57,20.30
2016,08,24,21,58,20.40
2016,08,24,21,59,20.40
2016,08,24,22,00,20.40
2016,08,24,22,01,20.40
2016,08,24,22,02,20.40
2016,08,24,22,03,20.40
2016,08,24,22,04,20.40
2016,08,24,22,05,20.40
2016,08,24,22,06,20.40
2016,08,24,22,07,20.30
2016,08,24,22,08,20.30
2016,08,24,22,09,20.20
2016,08,24,22,10,20.20
2016,08,24,22,11,20.10
2016,08,24,22,12,20.10
2016,08,24,22,13,20.10
2016,08,24,22,14,20.00
2016,08,24,22,15,19.90
2016,08,24,22,16,19.90
2016,08,24,22,17,19.90
2016,08,24,22,18,19.80
2016,08,24,22,19,19.80
2016,08,24,22,20,19.80
2016,08,24,22,21,19.70
2016,08,24,22,22,19.70
2016,08,24,22,23,19.60
2016,08,24,22,24,19.60
2016,08,24,22,25,19.60
2016,08,24,22,26,19.60
2016,08,24,22,27,19.50
2016,08,24,22,28,19.50
2016,08,24,22,29,19.50
2016,08,24,22,30,19.50
2016,08,24,22,31,19.40
2016,08,24,22,32,19.40
2016,08,24,22,33,19.40
2016,08,24,22,34,19.40
2016,08,24,22,35,19.30
2016,08,24,22,36,19.30
2016,08,24,22,37,19.30
2016,08,24,22,38,19.30
2016,08,24,22,39,19.30
2016,08,24,22,40,19.30
2016,08,24,22,41,19.20
2016,08,24,22,42,19.20
2016,08,24,22,43,19.20
2016,08,24,22,44,19.20
2016,08,24,22,45,19.10
2016,08,24,22,46,19.10
2016,08,24,22,47,19.10
2016,08,24,22,48,19.10
2016,08,24,22,49,19.10
2016,08,24,22,50,19.10
2016,08,24,22,51,19.10
2016,08,24,22,52,19.10
2016,08,24,22,53,19.10
2016,08,24,22,54,19.10
2016,08,24,22,55,19.10
2016,08,24,22,56,19.20
2016,08,24,22,57,19.20
2016,08,24,22,58,19.20
2016,08,24,22,59,19.20
2016,08,24,23,00,19.20
2016,08,24,23,01,19.20
2016,08,24,23,02,19.20
2016,08,24,23,03,19.20
2016,08,24,23,04,19.20
2016,08,24,23,05,19.20
2016,08,24,23,06,19.20
2016,08,24,23,07,19.20
2016,08,24,23,08,19.20
2016,08,24,23,09,19.10
2016,08,24,23,10,19.10
2016,08,24,23,11,19.10
2016,08,24,23,12,19.10
2016,08,24,23,13,19.10
2016,08,24,23,14,19.10
2016,08,24,23,15,19.10
2016,08,24,23,16,19.10
2016,08,24,23,17,19.10
2016,08,24,23,18,19.10
2016,08,24,23,19,19.10
2016,08,24,23,20,19.10
2016,08,24,23,21,19.10
2016,08,24,23,22,19.10
2016,08,24,23,23,19.10